Timestamp, Local Timestamp, ID, PM25, PM10, Co2, Temperature, Relative Humidity, Monitor ID, O3
2024-02-20T13:48:06Z,02/20/24 08:48,11496049,1.327,0.002,691,11.3,49.3,87,0.0
2024-02-20T13:49:06Z,02/20/24 08:49,11496055,1.427,0.004,664,12.1,48.2,87,2.0
2024-02-20T13:50:06Z,02/20/24 08:50,11496061,1.315,0.002,651,12.8,47.2,87,3.0
2024-02-20T13:51:06Z,02/20/24 08:51,11496067,1.287,0.009,654,13.6,46.2,87,3.0
2024-02-20T13:52:06Z,02/20/24 08:52,11496073,1.371,0.003,658,14.3,45.2,87,3.0
2024-02-20T13:53:06Z,02/20/24 08:53,11496079,1.367,0.001,641,15.0,44.4,87,4.0
2024-02-20T13:54:06Z,02/20/24 08:54,11496085,1.2189999999999999,0.002,638,15.6,43.6,87,3.0
2024-02-20T13:55:06Z,02/20/24 08:55,11496091,1.432,0.002,631,16.2,42.8,87,4.0
2024-02-20T13:56:06Z,02/20/24 08:56,11496097,1.436,0.004,621,16.8,42.1,87,4.0
2024-02-20T13:57:06Z,02/20/24 08:57,11496103,1.335,0.003,638,17.3,41.5,87,5.0
2024-02-20T13:58:06Z,02/20/24 08:58,11496109,1.324,0.005,655,17.8,40.9,87,5.0
2024-02-20T13:59:06Z,02/20/24 08:59,11496115,1.258,0.002,648,18.2,40.5,87,5.0
2024-02-20T14:00:06Z,02/20/24 09:00,11496121,1.25,0.001,714,18.6,40.2,87,4.0
2024-02-20T14:01:06Z,02/20/24 09:01,11496127,1.369,0.002,674,19.0,39.6,87,5.0
2024-02-20T14:02:06Z,02/20/24 09:02,11496133,1.277,0.001,705,19.4,39.3,87,5.0
2024-02-20T14:04:26Z,02/20/24 09:04,11496145,1.407,0.006,677,20.1,38.2,87,5.0
2024-02-20T14:05:06Z,02/20/24 09:05,11496150,1.456,0.005,661,20.3,37.8,87,5.0
2024-02-20T14:06:06Z,02/20/24 09:06,11496156,1.813,0.002,645,20.5,37.3,87,6.0
2024-02-20T14:07:06Z,02/20/24 09:07,11496162,1.8690000000000002,0.0,628,20.8,36.9,87,7.0
2024-02-20T14:08:06Z,02/20/24 09:08,11496168,1.83,0.006,616,20.9,36.5,87,6.0
2024-02-20T14:09:06Z,02/20/24 09:09,11496174,1.904,0.007000000000000001,603,21.1,36.2,87,6.0
2024-02-20T14:10:06Z,02/20/24 09:10,11496180,1.985,0.007000000000000001,596,21.3,35.9,87,8.0
2024-02-20T14:11:06Z,02/20/24 09:11,11496186,1.988,0.01,588,21.4,35.6,87,7.0
2024-02-20T14:12:06Z,02/20/24 09:12,11496192,1.919,0.001,577,21.4,35.4,87,8.0
2024-02-20T14:13:06Z,02/20/24 09:13,11496198,2.113,0.008,579,21.5,35.2,87,8.0
2024-02-20T14:14:06Z,02/20/24 09:14,11496204,2.258,0.004,562,21.6,34.9,87,8.0
2024-02-20T14:15:06Z,02/20/24 09:15,11496210,1.9940000000000002,0.007000000000000001,556,21.7,34.7,87,9.0
2024-02-20T14:16:06Z,02/20/24 09:16,11496216,2.089,0.005,551,21.7,34.5,87,9.0
2024-02-20T14:17:06Z,02/20/24 09:17,11496222,2.1260000000000003,0.001,553,21.8,34.3,87,9.0
2024-02-20T14:18:06Z,02/20/24 09:18,11496228,1.9579999999999997,0.004,541,21.9,34.2,87,9.0
2024-02-20T14:19:06Z,02/20/24 09:19,11496234,2.035,0.002,547,21.9,34.0,87,10.0
2024-02-20T14:20:06Z,02/20/24 09:20,11496240,2.058,0.006,550,22.0,33.9,87,9.0
2024-02-20T14:21:06Z,02/20/24 09:21,11496246,1.6320000000000001,0.003,558,22.0,33.8,87,9.0
2024-02-20T14:22:06Z,02/20/24 09:22,11496252,1.8519999999999999,0.002,568,22.0,33.6,87,10.0
2024-02-20T14:23:06Z,02/20/24 09:23,11496258,1.748,0.004,571,22.1,33.6,87,10.0
2024-02-20T14:24:06Z,02/20/24 09:24,11496264,1.7530000000000001,0.005,565,22.2,33.4,87,10.0
2024-02-20T14:25:06Z,02/20/24 09:25,11496270,1.684,0.005,568,22.2,33.2,87,9.0
2024-02-20T14:26:06Z,02/20/24 09:26,11496276,1.8760000000000001,0.005,567,22.3,33.2,87,9.0
2024-02-20T14:27:06Z,02/20/24 09:27,11496282,1.7239999999999998,0.007000000000000001,564,22.4,33.0,87,9.0
2024-02-20T14:28:06Z,02/20/24 09:28,11496288,1.783,0.002,571,22.5,33.0,87,10.0
2024-02-20T14:29:06Z,02/20/24 09:29,11496294,1.6620000000000001,0.0,585,22.5,32.8,87,10.0
2024-02-20T14:30:06Z,02/20/24 09:30,11496300,1.585,0.005,601,22.6,32.7,87,11.0
2024-02-20T14:31:06Z,02/20/24 09:31,11496306,1.8489999999999998,0.005,601,22.6,32.6,87,11.0
2024-02-20T14:32:06Z,02/20/24 09:32,11496312,2.033,0.001,602,22.6,32.5,87,11.0
2024-02-20T14:33:06Z,02/20/24 09:33,11496318,1.685,0.004,616,22.6,32.5,87,11.0
2024-02-20T14:34:06Z,02/20/24 09:34,11496324,1.895,0.007000000000000001,605,22.7,32.4,87,12.0
2024-02-20T14:35:06Z,02/20/24 09:35,11496330,1.7730000000000001,0.006,574,22.7,32.2,87,12.0
2024-02-20T14:36:06Z,02/20/24 09:36,11496336,1.7440000000000002,0.002,557,22.7,32.1,87,12.0
2024-02-20T14:37:06Z,02/20/24 09:37,11496342,1.905,0.003,547,22.7,32.0,87,12.0
2024-02-20T14:38:06Z,02/20/24 09:38,11496348,1.909,0.011,544,22.8,31.9,87,12.0
2024-02-20T14:39:06Z,02/20/24 09:39,11496354,1.704,0.003,544,22.8,31.7,87,12.0
2024-02-20T14:40:06Z,02/20/24 09:40,11496360,1.778,0.001,552,22.8,31.7,87,12.0
2024-02-20T14:41:06Z,02/20/24 09:41,11496366,1.671,0.003,559,22.8,31.7,87,13.0
2024-02-20T14:42:06Z,02/20/24 09:42,11496372,1.5150000000000001,0.0,552,22.9,31.6,87,12.0
2024-02-20T14:43:06Z,02/20/24 09:43,11496378,1.652,0.001,553,22.9,31.5,87,12.0
2024-02-20T14:44:06Z,02/20/24 09:44,11496384,1.482,0.003,559,23.0,31.4,87,12.0
2024-02-20T14:45:06Z,02/20/24 09:45,11496390,1.671,0.006,554,23.0,31.4,87,12.0
2024-02-20T14:46:06Z,02/20/24 09:46,11496396,1.51,0.002,563,23.0,31.4,87,12.0
2024-02-20T14:47:06Z,02/20/24 09:47,11496402,1.932,0.003,556,23.1,31.3,87,12.0
2024-02-20T14:48:06Z,02/20/24 09:48,11496408,1.952,0.007000000000000001,550,23.1,31.2,87,13.0
2024-02-20T14:49:06Z,02/20/24 09:49,11496414,1.8760000000000001,0.002,552,23.2,31.1,87,13.0
2024-02-20T14:50:06Z,02/20/24 09:50,11496420,1.9329999999999998,0.002,543,23.2,31.0,87,13.0
2024-02-20T14:51:06Z,02/20/24 09:51,11496426,1.8379999999999999,0.007000000000000001,520,23.2,31.0,87,14.0
2024-02-20T14:52:06Z,02/20/24 09:52,11496432,1.9609999999999999,0.004,529,23.2,30.9,87,14.0
2024-02-20T14:53:06Z,02/20/24 09:53,11496438,1.661,0.004,528,23.2,30.8,87,15.0
2024-02-20T14:54:06Z,02/20/24 09:54,11496444,1.9420000000000002,0.002,504,23.2,30.7,87,14.0
2024-02-20T14:55:06Z,02/20/24 09:55,11496450,1.6649999999999998,0.009,520,23.2,30.6,87,14.0
2024-02-20T14:56:06Z,02/20/24 09:56,11496456,1.716,0.0,531,23.2,30.6,87,14.0
2024-02-20T14:57:06Z,02/20/24 09:57,11496462,1.779,0.003,545,23.3,30.7,87,13.0
2024-02-20T14:58:06Z,02/20/24 09:58,11496468,1.623,0.009,558,23.3,30.7,87,13.0
2024-02-20T14:59:06Z,02/20/24 09:59,11496474,1.627,0.002,569,23.3,30.6,87,14.0
2024-02-20T15:00:06Z,02/20/24 10:00,11496480,1.541,0.004,583,23.3,30.6,87,13.0
2024-02-20T15:01:06Z,02/20/24 10:01,11496486,1.6949999999999998,0.003,568,23.3,30.6,87,14.0
2024-02-20T15:02:06Z,02/20/24 10:02,11496492,1.657,0.002,565,23.3,30.5,87,13.0
2024-02-20T15:03:06Z,02/20/24 10:03,11496498,1.6480000000000001,0.005,549,23.3,30.5,87,14.0
2024-02-20T15:04:06Z,02/20/24 10:04,11496504,1.656,0.003,548,23.4,30.4,87,14.0
2024-02-20T15:05:06Z,02/20/24 10:05,11496510,1.7899999999999998,0.007000000000000001,548,23.4,30.4,87,14.0
2024-02-20T15:06:06Z,02/20/24 10:06,11496516,1.953,0.003,568,23.4,30.4,87,14.0
2024-02-20T15:07:06Z,02/20/24 10:07,11496522,1.7890000000000001,0.002,578,23.4,30.4,87,14.0
2024-02-20T15:08:06Z,02/20/24 10:08,11496528,1.924,0.002,586,23.4,30.4,87,14.0
2024-02-20T15:09:06Z,02/20/24 10:09,11496534,1.782,0.006,603,23.4,30.5,87,14.0
2024-02-20T15:10:06Z,02/20/24 10:10,11496540,1.848,0.003,593,23.4,30.5,87,14.0
2024-02-20T15:11:06Z,02/20/24 10:11,11496546,1.781,0.004,583,23.4,30.3,87,14.0
2024-02-20T15:12:06Z,02/20/24 10:12,11496552,1.845,0.003,546,23.4,30.2,87,15.0
2024-02-20T15:13:06Z,02/20/24 10:13,11496558,1.6670000000000003,0.004,544,23.4,30.1,87,15.0
2024-02-20T15:14:06Z,02/20/24 10:14,11496564,1.524,0.003,528,23.3,30.1,87,14.0
2024-02-20T15:15:06Z,02/20/24 10:15,11496570,1.567,0.002,543,23.3,30.1,87,14.0
2024-02-20T15:16:06Z,02/20/24 10:16,11496576,1.399,0.005,556,23.3,30.1,87,13.0
2024-02-20T15:17:06Z,02/20/24 10:17,11496582,1.7280000000000002,0.0,561,23.3,30.1,87,14.0
2024-02-20T15:18:06Z,02/20/24 10:18,11496588,1.538,0.001,572,23.4,30.1,87,14.0
2024-02-20T15:19:06Z,02/20/24 10:19,11496594,1.52,0.007000000000000001,589,23.4,30.1,87,13.0
2024-02-20T15:20:06Z,02/20/24 10:20,11496600,1.5390000000000001,0.003,590,23.4,30.1,87,14.0
2024-02-20T15:21:06Z,02/20/24 10:21,11496606,1.545,0.006,594,23.4,30.1,87,7.0
2024-02-20T15:22:06Z,02/20/24 10:22,11496612,1.546,0.005,589,23.4,30.0,87,0.0
2024-02-20T15:23:06Z,02/20/24 10:23,11496618,1.702,0.002,589,23.4,30.0,87,5.0
2024-02-20T15:24:06Z,02/20/24 10:24,11496624,1.6300000000000001,0.011,574,23.4,29.9,87,7.0
2024-02-20T15:25:06Z,02/20/24 10:25,11496630,1.723,0.002,591,23.4,30.0,87,7.0
2024-02-20T15:26:06Z,02/20/24 10:26,11496636,1.706,0.001,596,23.4,30.0,87,8.0
2024-02-20T15:27:06Z,02/20/24 10:27,11496642,1.716,0.003,600,23.4,30.0,87,9.0
2024-02-20T15:28:06Z,02/20/24 10:28,11496648,1.592,0.004,608,23.4,30.0,87,11.0
2024-02-20T15:29:06Z,02/20/24 10:29,11496654,1.552,0.005,605,23.4,30.0,87,11.0
2024-02-20T15:30:06Z,02/20/24 10:30,11496660,1.4949999999999999,0.002,612,23.4,30.0,87,11.0
2024-02-20T15:31:06Z,02/20/24 10:31,11496666,1.401,0.006,593,23.4,30.0,87,11.0
2024-02-20T15:32:06Z,02/20/24 10:32,11496672,1.5210000000000001,0.003,603,23.4,30.0,87,11.0
2024-02-20T15:33:06Z,02/20/24 10:33,11496678,1.221,0.003,603,23.4,29.9,87,11.0
2024-02-20T15:34:06Z,02/20/24 10:34,11496684,1.436,0.001,608,23.4,29.9,87,11.0
2024-02-20T15:35:06Z,02/20/24 10:35,11496690,1.424,0.001,589,23.5,29.8,87,11.0
2024-02-20T15:36:06Z,02/20/24 10:36,11496696,1.584,0.003,588,23.5,29.8,87,11.0
2024-02-20T15:37:06Z,02/20/24 10:37,11496702,1.492,0.002,579,23.6,29.8,87,13.0
2024-02-20T15:38:06Z,02/20/24 10:38,11496708,1.514,0.007000000000000001,567,23.6,29.8,87,13.0
2024-02-20T15:39:07Z,02/20/24 10:39,11496714,1.791,0.003,568,23.6,29.8,87,14.0
2024-02-20T15:40:06Z,02/20/24 10:40,11496720,1.589,0.007000000000000001,564,23.6,29.7,87,14.0
2024-02-20T15:41:06Z,02/20/24 10:41,11496726,1.688,0.004,551,23.6,29.7,87,14.0
2024-02-20T15:42:06Z,02/20/24 10:42,11496732,1.551,0.006,553,23.6,29.6,87,15.0
2024-02-20T15:43:06Z,02/20/24 10:43,11496738,1.8030000000000002,0.006,537,23.6,29.5,87,15.0
2024-02-20T15:44:06Z,02/20/24 10:44,11496744,1.927,0.014000000000000002,542,23.6,29.5,87,15.0
2024-02-20T15:45:06Z,02/20/24 10:45,11496750,1.7690000000000001,0.001,534,23.5,29.5,87,16.0
2024-02-20T15:46:07Z,02/20/24 10:46,11496756,1.685,0.01,532,23.5,29.4,87,16.0
2024-02-20T15:47:06Z,02/20/24 10:47,11496762,1.6940000000000002,0.004,530,23.5,29.4,87,16.0
2024-02-20T15:48:06Z,02/20/24 10:48,11496768,1.8670000000000002,0.002,527,23.5,29.4,87,16.0
2024-02-20T15:49:06Z,02/20/24 10:49,11496774,1.5939999999999999,0.008,537,23.4,29.4,87,16.0
2024-02-20T15:50:06Z,02/20/24 10:50,11496780,1.7120000000000002,0.007000000000000001,537,23.4,29.4,87,15.0
2024-02-20T15:51:06Z,02/20/24 10:51,11496786,1.524,0.006,536,23.4,29.4,87,16.0
2024-02-20T15:52:07Z,02/20/24 10:52,11496792,1.53,0.006,546,23.4,29.5,87,15.0
2024-02-20T15:53:07Z,02/20/24 10:53,11496798,1.463,0.004,533,23.5,29.5,87,15.0
2024-02-20T15:54:06Z,02/20/24 10:54,11496804,1.6510000000000002,0.008,557,23.5,29.5,87,15.0
2024-02-20T15:55:06Z,02/20/24 10:55,11496810,1.49,0.01,537,23.5,29.4,87,15.0
2024-02-20T15:56:06Z,02/20/24 10:56,11496816,1.465,0.002,542,23.6,29.4,87,16.0
2024-02-20T15:57:06Z,02/20/24 10:57,11496822,1.7710000000000001,0.005,550,23.6,29.4,87,15.0
2024-02-20T15:58:06Z,02/20/24 10:58,11496828,1.75,0.002,541,23.6,29.3,87,16.0
2024-02-20T15:59:07Z,02/20/24 10:59,11496834,1.623,0.003,537,23.6,29.3,87,16.0
2024-02-20T16:00:07Z,02/20/24 11:00,11496840,1.7510000000000001,0.001,542,23.6,29.3,87,16.0
2024-02-20T16:01:06Z,02/20/24 11:01,11496846,1.501,0.005,524,23.6,29.3,87,17.0
2024-02-20T16:02:06Z,02/20/24 11:02,11496852,1.599,0.003,528,23.6,29.3,87,17.0
2024-02-20T16:03:07Z,02/20/24 11:03,11496858,1.807,0.008,514,23.6,29.3,87,17.0
2024-02-20T16:04:07Z,02/20/24 11:04,11496864,1.556,0.007000000000000001,519,23.6,29.2,87,6.0
2024-02-20T16:05:07Z,02/20/24 11:05,11496870,1.465,0.002,525,23.5,29.2,87,12.0
2024-02-20T16:06:07Z,02/20/24 11:06,11496876,1.658,0.004,521,23.5,29.2,87,11.0
2024-02-20T16:07:07Z,02/20/24 11:07,11496882,1.46,0.007000000000000001,524,23.5,29.2,87,11.0
2024-02-20T16:08:07Z,02/20/24 11:08,11496888,1.564,0.008,532,23.5,29.3,87,10.0
2024-02-20T16:09:07Z,02/20/24 11:09,11496894,1.548,0.003,542,23.5,29.3,87,10.0
2024-02-20T16:10:07Z,02/20/24 11:10,11496900,1.418,0.004,563,23.5,29.3,87,10.0
2024-02-20T16:11:07Z,02/20/24 11:11,11496906,1.421,0.007000000000000001,567,23.6,29.3,87,11.0
2024-02-20T16:12:07Z,02/20/24 11:12,11496912,1.535,0.004,561,23.6,29.3,87,11.0
2024-02-20T16:13:07Z,02/20/24 11:13,11496918,1.784,0.004,563,23.6,29.3,87,12.0
2024-02-20T16:14:07Z,02/20/24 11:14,11496924,1.6510000000000002,0.002,567,23.6,29.3,87,12.0
2024-02-20T16:15:07Z,02/20/24 11:15,11496930,1.502,0.004,577,23.6,29.3,87,14.0
2024-02-20T16:16:07Z,02/20/24 11:16,11496936,1.5939999999999999,0.005,564,23.6,29.3,87,14.0
2024-02-20T16:17:07Z,02/20/24 11:17,11496942,1.465,0.005,563,23.6,29.2,87,14.0
2024-02-20T16:18:07Z,02/20/24 11:18,11496948,1.7329999999999999,0.007000000000000001,567,23.6,29.3,87,14.0
2024-02-20T16:19:07Z,02/20/24 11:19,11496954,1.6510000000000002,0.005,577,23.6,29.3,87,15.0
2024-02-20T16:20:07Z,02/20/24 11:20,11496960,1.4869999999999999,0.007000000000000001,573,23.6,29.3,87,15.0
2024-02-20T16:21:07Z,02/20/24 11:21,11496966,1.564,0.008,574,23.6,29.3,87,15.0
2024-02-20T16:22:07Z,02/20/24 11:22,11496972,1.623,0.006,579,23.6,29.3,87,15.0
2024-02-20T16:23:07Z,02/20/24 11:23,11496978,1.464,0.006,586,23.6,29.3,87,15.0
2024-02-20T16:24:07Z,02/20/24 11:24,11496984,1.424,0.001,583,23.6,29.3,87,14.0
2024-02-20T16:25:07Z,02/20/24 11:25,11496990,1.246,0.002,586,23.6,29.2,87,15.0
2024-02-20T16:26:07Z,02/20/24 11:26,11496996,1.474,0.005,571,23.6,29.2,87,16.0
2024-02-20T16:27:07Z,02/20/24 11:27,11497002,1.551,0.003,557,23.6,29.1,87,16.0
2024-02-20T16:28:07Z,02/20/24 11:28,11497008,1.4689999999999999,0.007000000000000001,557,23.6,29.1,87,16.0
2024-02-20T16:29:07Z,02/20/24 11:29,11497014,1.473,0.006,550,23.6,29.1,87,17.0
2024-02-20T16:30:07Z,02/20/24 11:30,11497020,1.386,0.003,550,23.6,29.1,87,16.0
2024-02-20T16:31:07Z,02/20/24 11:31,11497026,1.444,0.005,567,23.6,29.1,87,12.0
2024-02-20T16:32:07Z,02/20/24 11:32,11497032,1.482,0.003,586,23.6,29.1,87,15.0
2024-02-20T16:33:07Z,02/20/24 11:33,11497038,1.3679999999999999,0.006,602,23.6,29.1,87,16.0
2024-02-20T16:34:07Z,02/20/24 11:34,11497044,1.41,0.006,617,23.6,29.1,87,16.0
2024-02-20T16:35:07Z,02/20/24 11:35,11497050,1.4609999999999999,0.009,637,23.6,29.2,87,16.0
2024-02-20T16:36:07Z,02/20/24 11:36,11497056,1.439,0.01,629,23.5,29.1,87,16.0
2024-02-20T16:37:07Z,02/20/24 11:37,11497062,1.348,0.005,617,23.5,29.1,87,16.0
2024-02-20T16:38:07Z,02/20/24 11:38,11497068,1.597,0.008,611,23.5,29.1,87,17.0
2024-02-20T16:39:07Z,02/20/24 11:39,11497074,1.482,0.003,598,23.5,29.1,87,17.0
2024-02-20T16:40:07Z,02/20/24 11:40,11497080,1.465,0.002,617,23.5,29.1,87,16.0
2024-02-20T16:41:07Z,02/20/24 11:41,11497086,1.315,0.005,607,23.5,29.1,87,17.0
2024-02-20T16:42:07Z,02/20/24 11:42,11497092,1.329,0.006,607,23.5,29.1,87,17.0
2024-02-20T16:43:07Z,02/20/24 11:43,11497098,1.088,0.004,599,23.5,29.1,87,16.0
2024-02-20T16:44:07Z,02/20/24 11:44,11497104,1.202,0.004,602,23.5,29.1,87,17.0
2024-02-20T16:45:07Z,02/20/24 11:45,11497110,1.225,0.008,602,23.5,29.1,87,17.0
2024-02-20T16:46:07Z,02/20/24 11:46,11497116,1.2710000000000001,0.004,596,23.6,29.0,87,18.0
2024-02-20T16:47:07Z,02/20/24 11:47,11497122,1.233,0.003,589,23.6,29.0,87,13.0
2024-02-20T16:48:07Z,02/20/24 11:48,11497128,1.379,0.001,589,23.6,29.0,87,13.0
2024-02-20T16:49:07Z,02/20/24 11:49,11497134,1.264,0.002,596,23.6,28.9,87,6.0
2024-02-20T16:50:07Z,02/20/24 11:50,11497140,1.371,0.003,614,23.6,28.9,87,8.0
2024-02-20T16:51:07Z,02/20/24 11:51,11497146,1.387,0.005,623,23.6,28.9,87,10.0
2024-02-20T16:52:07Z,02/20/24 11:52,11497152,1.241,0.004,631,23.6,28.9,87,8.0
2024-02-20T16:53:07Z,02/20/24 11:53,11497158,1.098,0.003,640,23.6,29.0,87,0.0
2024-02-20T16:54:07Z,02/20/24 11:54,11497164,1.327,0.002,639,23.5,29.0,87,0.0
2024-02-20T16:55:07Z,02/20/24 11:55,11497170,1.275,0.003,640,23.5,28.9,87,6.0
2024-02-20T16:56:07Z,02/20/24 11:56,11497176,1.527,0.003,631,23.5,28.9,87,6.0
2024-02-20T16:57:07Z,02/20/24 11:57,11497182,1.359,0.003,623,23.5,28.9,87,10.0
2024-02-20T16:58:07Z,02/20/24 11:58,11497188,1.276,0.005,611,23.5,28.9,87,11.0
2024-02-20T16:59:07Z,02/20/24 11:59,11497194,1.171,0.005,604,23.5,28.9,87,12.0
2024-02-20T17:00:07Z,02/20/24 12:00,11497200,1.167,0.003,608,23.5,28.9,87,12.0
2024-02-20T17:01:07Z,02/20/24 12:01,11497206,1.333,0.002,604,23.5,28.9,87,13.0
2024-02-20T17:02:07Z,02/20/24 12:02,11497212,1.2349999999999999,0.004,593,23.6,28.9,87,14.0
2024-02-20T17:03:07Z,02/20/24 12:03,11497218,1.264,0.002,617,23.6,28.9,87,14.0
2024-02-20T17:04:07Z,02/20/24 12:04,11497224,1.267,0.002,605,23.6,28.9,87,15.0
2024-02-20T17:05:07Z,02/20/24 12:05,11497230,1.169,0.001,596,23.6,28.8,87,15.0
2024-02-20T17:06:07Z,02/20/24 12:06,11497236,1.329,0.006,582,23.6,28.7,87,17.0
2024-02-20T17:07:07Z,02/20/24 12:07,11497242,1.26,0.006,563,23.6,28.7,87,17.0
2024-02-20T17:08:07Z,02/20/24 12:08,11497248,1.173,0.006,550,23.7,28.7,87,17.0
2024-02-20T17:09:07Z,02/20/24 12:09,11497254,1.426,0.005,571,23.7,28.6,87,17.0
2024-02-20T17:10:07Z,02/20/24 12:10,11497260,1.269,0.0,583,23.7,28.6,87,17.0
2024-02-20T17:11:07Z,02/20/24 12:11,11497266,1.442,0.001,592,23.6,28.6,87,17.0
2024-02-20T17:12:07Z,02/20/24 12:12,11497272,1.0,0.008,592,23.6,28.6,87,17.0
2024-02-20T17:13:07Z,02/20/24 12:13,11497278,1.258,0.002,579,23.6,28.6,87,18.0
2024-02-20T17:14:07Z,02/20/24 12:14,11497284,1.126,0.002,577,23.6,28.6,87,17.0
2024-02-20T17:15:07Z,02/20/24 12:15,11497290,1.162,0.002,577,23.6,28.5,87,18.0
2024-02-20T17:16:07Z,02/20/24 12:16,11497296,1.247,0.004,585,23.6,28.5,87,18.0
2024-02-20T17:17:07Z,02/20/24 12:17,11497302,1.242,0.003,583,23.5,28.5,87,18.0
2024-02-20T17:18:07Z,02/20/24 12:18,11497308,1.4,0.004,564,23.5,28.4,87,19.0
2024-02-20T17:19:07Z,02/20/24 12:19,11497314,1.101,0.006,551,23.5,28.4,87,19.0
2024-02-20T17:20:07Z,02/20/24 12:20,11497320,1.127,0.001,537,23.5,28.4,87,20.0
2024-02-20T17:21:07Z,02/20/24 12:21,11497326,1.319,0.004,525,23.5,28.4,87,20.0
2024-02-20T17:22:07Z,02/20/24 12:22,11497332,1.239,0.006,528,23.5,28.3,87,20.0
2024-02-20T17:23:07Z,02/20/24 12:23,11497338,1.097,0.004,528,23.5,28.4,87,19.0
2024-02-20T17:24:07Z,02/20/24 12:24,11497344,1.2550000000000001,0.002,521,23.5,28.3,87,20.0
2024-02-20T17:25:07Z,02/20/24 12:25,11497350,1.205,0.007000000000000001,528,23.5,28.3,87,20.0
2024-02-20T17:26:07Z,02/20/24 12:26,11497356,1.051,0.002,534,23.5,28.3,87,20.0
2024-02-20T17:27:07Z,02/20/24 12:27,11497362,1.178,0.001,532,23.5,28.3,87,21.0
2024-02-20T17:28:07Z,02/20/24 12:28,11497368,1.108,0.002,532,23.5,28.2,87,21.0
2024-02-20T17:29:07Z,02/20/24 12:29,11497374,1.21,0.005,518,23.6,28.2,87,21.0
2024-02-20T17:30:07Z,02/20/24 12:30,11497380,1.1199999999999999,0.002,517,23.6,28.2,87,21.0
2024-02-20T17:31:07Z,02/20/24 12:31,11497386,1.217,0.001,515,23.6,28.1,87,21.0
2024-02-20T17:32:07Z,02/20/24 12:32,11497392,1.238,0.004,528,23.6,28.1,87,22.0
2024-02-20T17:33:07Z,02/20/24 12:33,11497398,1.1119999999999999,0.001,532,23.6,28.1,87,20.0
2024-02-20T17:34:07Z,02/20/24 12:34,11497404,1.027,0.005,542,23.6,28.1,87,1.0
2024-02-20T17:35:07Z,02/20/24 12:35,11497410,1.09,0.002,540,23.6,28.1,87,6.0
2024-02-20T17:36:07Z,02/20/24 12:36,11497416,1.113,0.0,532,23.6,28.1,87,8.0
2024-02-20T17:37:07Z,02/20/24 12:37,11497422,1.275,0.003,518,23.6,28.0,87,13.0
2024-02-20T17:38:07Z,02/20/24 12:38,11497428,1.24,0.008,528,23.6,28.1,87,15.0
2024-02-20T17:39:07Z,02/20/24 12:39,11497434,1.049,0.001,522,23.6,28.1,87,16.0
2024-02-20T17:40:07Z,02/20/24 12:40,11497440,1.144,0.002,530,23.6,28.1,87,18.0
2024-02-20T17:41:07Z,02/20/24 12:41,11497446,1.217,0.004,522,23.6,28.0,87,19.0
2024-02-20T17:42:07Z,02/20/24 12:42,11497452,1.0230000000000001,0.0,521,23.6,28.0,87,19.0
2024-02-20T17:43:07Z,02/20/24 12:43,11497458,1.107,0.003,527,23.6,28.0,87,20.0
2024-02-20T17:44:07Z,02/20/24 12:44,11497464,1.2189999999999999,0.011,519,23.6,28.0,87,21.0
2024-02-20T17:45:07Z,02/20/24 12:45,11497470,1.197,0.003,513,23.6,28.0,87,21.0
2024-02-20T17:46:07Z,02/20/24 12:46,11497476,0.932,0.004,515,23.6,28.0,87,21.0
2024-02-20T17:47:07Z,02/20/24 12:47,11497482,1.175,0.007000000000000001,513,23.6,28.0,87,21.0
2024-02-20T17:48:07Z,02/20/24 12:48,11497488,1.002,0.003,500,23.6,27.9,87,21.0
2024-02-20T17:49:07Z,02/20/24 12:49,11497494,1.0470000000000002,0.003,513,23.6,27.9,87,21.0
2024-02-20T17:50:07Z,02/20/24 12:50,11497500,0.9339999999999999,0.005,502,23.6,27.9,87,21.0
2024-02-20T17:51:07Z,02/20/24 12:51,11497506,1.093,0.002,503,23.6,27.9,87,21.0
2024-02-20T17:52:07Z,02/20/24 12:52,11497512,1.212,0.003,507,23.6,27.9,87,21.0
2024-02-20T17:53:07Z,02/20/24 12:53,11497518,1.1179999999999999,0.004,504,23.6,28.0,87,22.0
2024-02-20T17:54:07Z,02/20/24 12:54,11497524,1.041,0.003,510,23.6,28.0,87,2.0
2024-02-20T17:55:07Z,02/20/24 12:55,11497530,1.218,0.006,496,23.6,28.0,87,5.0
2024-02-20T17:56:07Z,02/20/24 12:56,11497536,1.116,0.009,489,23.6,27.9,87,9.0
2024-02-20T17:57:07Z,02/20/24 12:57,11497542,1.1119999999999999,0.001,503,23.6,27.9,87,11.0
2024-02-20T17:58:07Z,02/20/24 12:58,11497548,1.135,0.005,497,23.6,27.9,87,13.0
2024-02-20T17:59:07Z,02/20/24 12:59,11497554,1.145,0.004,499,23.6,27.9,87,15.0
2024-02-20T18:00:07Z,02/20/24 13:00,11497560,1.014,0.003,500,23.6,27.9,87,15.0
2024-02-20T18:01:07Z,02/20/24 13:01,11497566,1.259,0.007000000000000001,495,23.6,27.8,87,17.0
2024-02-20T18:02:07Z,02/20/24 13:02,11497572,1.141,0.002,496,23.6,27.8,87,18.0
2024-02-20T18:03:07Z,02/20/24 13:03,11497578,1.127,0.001,471,23.6,27.8,87,18.0
2024-02-20T18:04:07Z,02/20/24 13:04,11497584,1.173,0.003,474,23.6,27.8,87,18.0
2024-02-20T18:05:07Z,02/20/24 13:05,11497590,1.256,0.001,470,23.6,27.8,87,20.0
2024-02-20T18:06:07Z,02/20/24 13:06,11497596,1.1480000000000001,0.004,470,23.6,27.7,87,21.0
2024-02-20T18:07:07Z,02/20/24 13:07,11497602,1.169,0.007000000000000001,462,23.6,27.7,87,21.0
2024-02-20T18:08:07Z,02/20/24 13:08,11497608,1.23,0.0,447,23.6,27.6,87,22.0
2024-02-20T18:09:07Z,02/20/24 13:09,11497614,1.089,0.003,458,23.6,27.6,87,23.0
2024-02-20T18:10:07Z,02/20/24 13:10,11497620,1.108,0.002,463,23.6,27.6,87,23.0
2024-02-20T18:11:07Z,02/20/24 13:11,11497627,1.221,0.006,453,23.6,27.5,87,23.0
2024-02-20T18:12:07Z,02/20/24 13:12,11497633,1.124,0.004,448,23.6,27.5,87,23.0
2024-02-20T18:13:07Z,02/20/24 13:13,11497639,1.089,0.006,446,23.6,27.5,87,24.0
2024-02-20T18:14:07Z,02/20/24 13:14,11497645,1.1560000000000001,0.005,450,23.6,27.5,87,24.0
2024-02-20T18:15:07Z,02/20/24 13:15,11497651,1.122,0.003,446,23.6,27.5,87,24.0
2024-02-20T18:16:07Z,02/20/24 13:16,11497657,1.264,0.005,450,23.6,27.5,87,24.0
2024-02-20T18:17:07Z,02/20/24 13:17,11497663,1.122,0.006,457,23.6,27.4,87,24.0
2024-02-20T18:18:07Z,02/20/24 13:18,11497669,1.126,0.002,451,23.6,27.4,87,24.0
2024-02-20T18:19:07Z,02/20/24 13:19,11497675,1.093,0.002,439,23.6,27.4,87,25.0
2024-02-20T18:20:07Z,02/20/24 13:20,11497681,1.176,0.003,455,23.6,27.4,87,25.0
2024-02-20T18:21:07Z,02/20/24 13:21,11497687,1.262,0.007000000000000001,454,23.6,27.4,87,25.0
2024-02-20T18:22:07Z,02/20/24 13:22,11497693,1.2369999999999999,0.002,451,23.6,27.4,87,25.0
2024-02-20T18:23:07Z,02/20/24 13:23,11497699,1.251,0.003,443,23.6,27.4,87,25.0
2024-02-20T18:24:07Z,02/20/24 13:24,11497705,1.2730000000000001,0.005,447,23.6,27.4,87,25.0
2024-02-20T18:25:07Z,02/20/24 13:25,11497711,1.207,0.008,455,23.6,27.5,87,25.0
2024-02-20T18:26:07Z,02/20/24 13:26,11497717,1.1039999999999999,0.0,454,23.6,27.5,87,25.0
2024-02-20T18:27:07Z,02/20/24 13:27,11497723,1.209,0.006,453,23.6,27.4,87,25.0
2024-02-20T18:28:07Z,02/20/24 13:28,11497729,0.9869999999999999,0.006,442,23.6,27.4,87,26.0
2024-02-20T18:29:07Z,02/20/24 13:29,11497735,1.152,0.003,434,23.6,27.4,87,26.0
2024-02-20T18:30:07Z,02/20/24 13:30,11497741,1.004,0.001,442,23.6,27.4,87,26.0
2024-02-20T18:31:07Z,02/20/24 13:31,11497747,1.23,0.006,462,23.6,27.4,87,26.0
2024-02-20T18:32:07Z,02/20/24 13:32,11497753,1.241,0.004,453,23.6,27.4,87,26.0